Regional Weather Roundup
Issued by NWS

Home | Current Version | Previous Version | Text Only | Print | Product List | Glossary On
Versions: 1 2 3 4 5 6 7 8 9 10 11 12 13 14 15 16 17 18 19 20 21 22 23 24 25 26 27 28 29 30 31 32 33 34 35 36 37 38 39 40 41 42 43 44 45 46 47 48 49 50
000
ASUS42 KFFC 061603
RWRGA
WEATHER ROUNDUP FOR GEORGIA
NATIONAL WEATHER SERVICE PEACHTREE CITY GA
1100 AM EST FRI MAR 06 2015

NOTE: "FAIR" INDICATES FEW OR NO CLOUDS BELOW 12,000 FEET WITH NO
SIGNIFICANT WEATHER AND/OR OBSTRUCTIONS TO VISIBILITY.

* = USE WITH CAUTION. THE STATIONS MARKED WITH AN ASTERISK MAY NOT
REPORT WEATHER SUCH AS PRECIPITATION, FOG, OR THUNDER AND ARE NOT
QUALITY CONTROLLED BY NWS.

THE REMARK "TC" DENOTES TEMPERATURE READING IN DEGREES CELSIUS.

GAZ001>058-061700-
NORTH GEORGIA

CITY           SKY/WX    TMP DP  RH WIND       PRES   REMARKS
ATLANTA        PTSUNNY   39  30  70 N7        30.42S WCI  34
ATHENS         CLOUDY    42  23  46 N8        30.44R
CHAMBLEE       CLOUDY    40  30  67 VRB3      30.43R
PEACHTREE CITY CLOUDY    39  30  70 NE6       30.44S WCI  35
ROME           CLOUDY    32  22  66 N8        30.50R WCI  25
WEST ATLANTA   CLOUDY    37  28  70 VRB6      30.45R WCI  32
GAINESVILLE    CLOUDY    38  23  55 E9        30.43R WCI  31
CARTERSVILLE   CLOUDY    32  22  66 VRB6      30.49S WCI  26


CITY           SKY/WX    TMP DP  RH WIND       PRES   REMARKS
DALTON*        CLOUDY    30  23  74 N3        30.51S
LAWRENCEVILLE* CLOUDY    41  25  52 E8        30.42R
MARIETTA       CLOUDY    36  29  74 VRB1      30.44R
KENNESAW*      CLOUDY    32  25  74 NW5       30.46S WCI  27
$$

GAZ059>098-102>109-061700-
CENTRAL GEORGIA

CITY           SKY/WX    TMP DP  RH WIND       PRES   REMARKS
AUGUSTA-BUSH   CLOUDY    42  28  57 N8        30.45R
AUGUSTA-DANIEL CLOUDY    44  28  53 NE12      30.44R
COLUMBUS       CLOUDY    39  31  72 E6        30.43S WCI  35
MACON          CLOUDY    42  38  85 E8        30.42R
ROBINS AFB     CLOUDY    40  38  93 NE8       30.41R FOG     WCI  35


CITY           SKY/WX    TMP DP  RH WIND       PRES   REMARKS
LAGRANGE*      CLOUDY    40  33  74 NE7       30.44S
SYLVANIA*      CLOUDY    41  36  81 NE9       30.43S
MILLEDGEVILLE* CLOUDY    43  36  75 NE6       30.43S
$$

GAZ099>101-110>166-061700-
SOUTH GEORGIA

CITY           SKY/WX    TMP DP  RH WIND       PRES   REMARKS
SAVANNAH       CLOUDY    45  34  65 NE9       30.40F
VALDOSTA       CLOUDY    48  43  82 N9        30.36R
ALMA           CLOUDY    45  39  79 NE7       30.37R
ST SIMONS      CLOUDY    46  42  86 NE17      30.36S
FT STEWART     CLOUDY    44  37  73 NE9       30.37F
ALBANY         CLOUDY    40  36  86 N9        30.43R WCI  34
HUNTER AFB     CLOUDY    44  37  77 NE10      30.38S
MOODY AFB      CLOUDY    47  43  85 N8        30.35R
BRUNSWICK      CLOUDY    46  43  87 NE12G17   30.38R


CITY           SKY/WX    TMP DP  RH WIND       PRES   REMARKS
BAINBRIDGE*    CLOUDY    43  37  81 N10       30.41R
MOULTRIE*      CLOUDY    43  41  93 N8        30.39R
VIDALIA*       CLOUDY    43  36  75 NE9       30.41R
WAYCROSS*      CLOUDY    49  46  87 NE9       30.37R
DOUGLAS*       CLOUDY    46  41  81 NE9       30.39R
$$


USA.gov is the U.S. government's official web portal to all federal, state and local government web resources and services.